Probability
0 0 0 0 0 0 0 0 0 0 0 0 1 3 6 8 9 8 6 6 13 22 27 30 31 32 32 33 34 35 34 34 36 35 32 27 21 14 8 7 8 7 5 4 5 5 5 4 4
0 0 0 0 0 0 0 0 0 0 0 0 0 2 4 6 8 8 8 9 16 23 27 30 32 32 33 35 36 35 34 35 36 35 32 28 23 16 11 8 8 6 5 4 3 3 3 4 5
0 0 0 0 0 0 0 0 0 0 0 0 0 1 2 4 7 9 11 15 20 24 26 28 31 33 34 37 38 37 35 34 34 32 30 29 25 19 14 10 7 5 5 3 1 1 1 3 4
0 0 0 0 0 0 0 0 0 0 0 0 0 0 1 2 5 9 14 20 24 25 24 26 29 31 32 36 39 38 35 34 32 30 29 29 26 21 17 11 6 4 4 3 1 0 0 1 2
0 0 0 1 2 2 1 1 0 0 0 0 0 0 1 2 6 11 16 19 22 22 20 22 26 29 30 34 37 37 35 36 35 32 30 29 26 22 17 12 7 4 3 1 0 0 0 1 2
0 0 1 2 3 2 2 1 0 0 0 0 0 1 3 5 9 13 15 15 17 17 15 16 21 26 29 31 33 33 34 36 35 33 30 27 25 23 19 14 10 6 3 1 0 0 1 3 4
0 0 1 2 2 1 1 1 1 0 0 0 1 3 5 8 12 15 14 14 14 14 13 14 17 21 24 26 29 30 29 29 29 30 29 26 23 21 19 17 14 11 6 3 1 1 3 5 5
0 0 1 1 1 0 0 0 0 0 0 0 1 3 6 10 15 17 16 15 15 13 11 12 15 16 17 19 21 22 21 20 21 24 28 27 23 20 18 17 16 13 9 5 3 4 5 6 6
0 1 1 1 0 0 0 0 0 0 0 0 1 3 8 13 16 18 17 16 15 12 8 9 12 13 14 14 14 14 15 16 18 20 24 27 25 21 17 15 15 13 10 6 4 6 8 8 7
0 1 1 1 0 0 0 0 0 0 0 0 1 4 9 12 14 15 15 14 13 10 6 5 7 10 12 12 10 10 12 16 18 19 21 24 26 24 19 17 15 14 10 7 6 7 8 8 9
0 0 0 0 0 0 0 0 0 0 0 0 2 6 9 11 11 11 12 11 10 8 5 4 5 7 9 9 8 9 13 17 19 20 21 22 23 25 24 21 19 17 14 13 12 10 8 8 10
0 0 0 0 0 0 0 0 0 0 0 2 5 8 10 10 9 9 9 9 9 8 6 4 4 5 5 5 5 8 11 15 17 19 20 20 21 22 23 22 21 19 18 19 19 16 12 10 10
0 0 0 0 0 0 0 0 0 0 1 3 7 9 9 10 10 9 8 8 9 8 5 3 3 4 3 2 2 4 7 11 12 13 16 18 19 19 18 19 19 19 19 21 20 17 14 12 11
0 0 0 0 0 0 0 0 1 1 2 5 7 8 8 9 10 8 7 6 7 6 4 2 2 3 3 1 1 2 4 6 7 8 10 14 16 16 15 16 17 16 16 17 18 16 13 11 11
0 0 0 0 0 0 0 0 1 1 2 5 7 7 7 8 8 8 6 5 5 4 3 2 1 1 1 0 0 1 3 4 5 6 7 9 10 10 12 13 14 14 15 16 17 15 11 8 7
0 0 0 0 0 0 0 1 1 1 2 5 5 6 7 7 6 6 6 5 4 3 2 1 0 0 0 0 1 2 3 3 3 4 5 5 6 7 8 8 10 13 15 17 17 15 9 5 5
0 0 0 0 0 0 0 1 2 2 3 5 5 5 6 6 5 4 4 4 4 4 3 2 1 0 0 0 1 3 3 2 3 3 4 3 4 5 6 6 6 9 14 15 14 11 7 4 3
0 0 0 0 0 0 0 1 2 3 4 4 4 5 6 5 4 4 4 4 4 5 5 3 1 0 0 0 1 3 3 3 3 3 3 3 3 4 5 4 3 5 7 8 8 6 4 2 1
0 0 0 0 0 0 0 0 2 3 4 3 3 4 5 5 5 6 6 6 6 6 5 3 1 0 0 0 1 3 3 3 4 3 4 4 3 2 2 2 2 2 2 2 3 3 2 0 0
0 0 0 0 0 0 0 0 1 2 3 3 3 3 3 4 6 7 7 8 8 6 5 3 1 0 0 1 2 3 3 3 3 3 3 3 1 1 1 2 2 1 0 0 1 2 2 0 0
0 0 0 0 0 0 0 0 0 1 2 2 2 2 1 2 6 8 8 8 9 8 5 3 1 0 1 2 3 3 3 2 3 3 2 1 0 0 1 1 1 1 0 0 1 1 1 1 0
0 0 0 0 0 0 0 0 0 1 1 1 1 1 0 1 4 7 8 8 9 8 6 3 1 0 1 2 3 3 3 3 2 2 1 0 0 0 0 0 0 0 0 0 0 0 1 1 1
0 0 0 0 0 0 0 0 0 1 0 0 0 0 0 0 2 5 7 7 7 7 6 4 1 0 1 2 3 3 3 3 1 1 0 0 0 0 0 0 0 0 0 0 0 0 1 2 2
0 0 0 0 0 0 0 0 0 0 0 0 0 0 0 0 0 2 5 6 6 6 6 4 1 0 1 2 2 2 2 2 1 0 0 0 0 0 0 0 0 0 0 0 0 0 1 2 2
0 0 0 0 0 0 0 0 0 0 1 1 1 0 0 0 0 2 5 6 6 5 5 5 2 0 0 1 1 1 1 1 0 0 0 0 0 0 0 0 0 1 0 0 0 0 1 1 1
0 0 0 0 0 0 0 0 0 0 1 2 2 1 0 1 1 2 5 6 5 5 6 6 4 1 0 0 0 0 0 0 0 0 0 0 0 0 0 0 0 0 0 0 0 0 0 0 0
0 0 0 0 0 0 0 0 0 0 1 1 1 1 1 2 2 2 3 4 5 5 7 7 5 1 0 0 0 0 0 0 0 0 0 0 0 0 0 0 0 0 0 0 0 0 0 0 0
0 0 0 0 0 0 0 0 0 0 0 0 0 0 1 2 2 1 1 3 5 6 7 6 3 1 0 0 0 0 0 0 0 0 0 0 0 0 0 0 0 0 0 0 0 0 0 0 0
0 0 0 0 0 0 0 0 0 0 0 0 0 0 2 3 1 0 0 2 4 6 5 4 2 1 0 0 0 0 0 0 0 0 0 0 0 0 0 0 0 0 0 0 0 0 0 0 0
0 0 0 0 0 0 0 0 0 0 0 0 0 0 2 3 1 0 0 1 3 4 4 4 3 2 1 0 0 0 0 0 0 0 0 0 0 0 0 0 0 0 0 0 0 0 0 0 0
Wind_Speed
5 4 2 2 4 5 1 3 2 1 1 1 2 3 5 3 2 2 1 5 7 7 7 9 11 11 12 12 12 13 13 13 13 13 13 13 13 12 12 12 11 11 10 10 9 8 8 7 7
3 3 2 4 5 3 3 3 2 2 2 1 3 3 4 2 2 2 1 3 7 7 6 7 11 12 12 12 12 12 13 13 12 12 12 12 12 11 11 11 11 10 9 9 8 8 7 6 6
3 1 4 5 3 3 3 2 2 1 1 1 2 3 2 1 1 0 2 6 7 6 5 6 11 11 12 12 12 12 12 12 12 11 11 11 11 10 10 9 10 9 9 8 8 7 7 6 5
3 3 4 5 0 3 3 2 1 1 1 2 3 3 2 2 1 2 6 8 8 5 4 6 10 11 11 11 11 11 10 10 10 10 10 10 9 9 9 9 9 8 8 8 8 7 6 6 6
3 4 5 3 3 3 2 2 1 1 1 1 3 3 2 3 5 6 7 7 7 5 4 5 9 10 10 10 10 10 9 9 9 9 9 9 8 8 8 7 7 7 8 8 7 7 6 6 6
4 5 4 1 3 4 2 1 2 2 1 1 3 2 1 2 5 5 6 5 5 5 4 3 8 9 9 9 9 9 8 8 8 8 8 8 8 7 7 7 6 7 7 7 7 6 6 6 6
4 4 2 2 2 3 2 1 2 2 0 0 2 3 0 2 3 5 6 5 5 4 3 2 3 5 7 8 8 8 8 7 7 7 7 7 7 7 7 7 7 7 7 7 7 7 7 6 6
4 5 1 1 2 4 2 1 1 2 1 1 3 4 3 2 5 6 6 6 5 4 3 2 2 2 2 3 6 7 7 6 6 7 7 7 8 7 7 6 6 6 7 7 7 6 6 6 6
4 5 1 3 4 4 1 1 1 2 3 2 2 2 3 8 8 7 6 5 3 3 1 1 1 2 2 2 4 5 5 5 4 4 5 5 3 3 4 6 7 7 7 7 6 6 6 6 5
4 3 5 4 4 3 1 1 2 2 2 1 3 5 8 9 7 7 6 4 3 2 1 1 1 2 2 2 2 1 2 2 2 2 2 2 2 2 3 4 6 6 5 5 5 4 4 3 2
3 5 4 3 3 3 2 1 2 5 2 3 5 6 8 8 6 5 4 4 3 3 2 2 2 2 1 1 1 1 0 1 1 2 2 1 1 1 2 1 2 3 4 3 3 2 1 1 1
2 4 3 3 1 1 2 2 3 3 3 3 6 8 9 8 5 4 4 2 2 2 1 1 2 2 1 1 1 1 1 1 1 2 2 2 1 1 1 1 2 2 2 2 2 2 2 2 2
2 3 1 1 0 3 5 4 4 1 2 6 8 8 8 6 4 2 2 2 1 1 0 0 1 1 1 1 0 1 1 1 1 1 1 2 2 2 1 1 1 2 2 2 2 2 2 2 3
1 1 3 3 1 3 6 3 4 1 3 7 8 6 5 5 4 3 2 2 1 1 0 0 1 0 1 1 0 0 0 1 0 1 2 2 2 2 2 2 2 2 2 2 2 3 3 2 2
1 2 5 4 3 1 5 5 3 1 5 6 6 5 5 4 3 3 2 2 1 1 0 1 0 1 1 1 0 0 0 0 1 1 1 2 2 3 3 2 2 3 2 3 2 2 2 2 2
3 4 3 4 3 2 5 1 2 2 6 5 4 4 4 3 2 1 1 1 1 1 1 1 1 2 1 1 0 0 0 0 1 1 1 1 2 3 3 3 3 3 2 2 2 2 2 2 2
4 2 2 4 3 2 4 1 2 2 5 5 4 3 3 3 2 1 1 1 1 1 1 0 1 1 0 1 1 0 0 1 1 1 1 2 2 3 2 2 2 2 2 2 2 2 2 2 3
2 1 2 2 2 5 4 2 2 2 4 4 4 3 2 2 0 0 1 1 1 1 1 1 1 1 1 1 1 1 1 1 1 1 2 3 2 2 2 2 2 2 2 2 2 2 2 2 2
3 2 1 2 0 4 4 3 2 2 3 3 2 2 1 1 1 0 1 1 1 1 1 0 1 1 0 0 1 1 1 1 1 2 3 3 3 2 2 2 2 2 2 3 3 2 2 1 1
3 2 1 1 2 4 4 4 2 2 2 1 2 1 1 1 1 1 1 0 1 1 2 1 1 2 1 1 1 1 2 2 2 2 2 3 3 3 3 2 2 2 2 2 2 2 2 1 2
2 4 4 3 2 3 4 4 3 2 2 1 1 1 1 1 2 1 1 1 1 2 2 2 2 2 2 1 1 1 1 2 1 2 2 3 3 2 2 3 3 2 2 2 3 3 3 2 2
3 4 5 4 4 1 2 1 3 2 2 2 2 2 2 2 2 1 1 2 3 3 2 2 2 2 2 1 1 1 2 2 3 2 2 3 3 3 3 3 3 2 2 2 3 3 3 3 2
3 1 3 3 4 2 2 2 5 1 2 3 3 3 2 2 2 2 2 3 3 3 2 2 2 2 2 1 1 2 2 2 2 2 3 3 3 3 3 2 2 2 2 3 3 3 4 3 3
3 5 5 5 5 1 1 2 4 2 3 3 3 4 3 2 3 3 3 3 3 3 2 2 2 3 2 2 2 2 3 3 3 3 3 3 3 3 3 2 2 3 2 3 3 3 4 4 4
5 6 4 5 4 3 1 2 5 3 2 2 3 4 3 2 3 3 3 4 4 4 3 3 3 3 3 3 3 3 3 3 4 4 3 3 3 3 3 3 3 3 3 3 3 3 4 4 5
2 7 6 4 4 4 1 3 4 1 1 1 2 2 2 2 3 4 4 4 4 5 4 3 3 4 4 4 4 3 3 3 3 4 3 3 3 4 4 4 4 4 3 3 3 3 4 4 4
4 2 4 6 2 1 3 3 3 2 3 3 3 3 3 3 4 4 4 4 4 5 5 4 4 4 5 4 4 4 3 3 3 3 3 3 3 3 4 4 4 3 3 3 3 3 4 4 4
4 6 5 5 3 2 3 3 3 3 4 4 4 4 4 5 5 5 5 5 5 5 4 4 3 4 5 4 4 4 3 3 3 3 4 4 4 3 3 3 3 3 3 3 3 3 3 4 4
3 4 5 4 4 4 3 5 3 4 3 3 4 4 4 4 5 5 5 5 5 4 4 4 4 4 4 4 4 4 4 3 3 3 4 3 3 3 3 4 3 3 3 3 3 3 3 4 4
2 3 5 4 2 3 3 6 2 2 1 1 3 4 3 4 5 5 5 5 4 5 5 4 4 4 4 3 3 3 3 3 3 4 4 3 3 3 3 3 3 3 3 3 3 4 4 4 4
Wind_Direction
130 121 115 81 56 50 343 289 269 316 21 12 100 112 122 125 144 184 328 129 123 134 149 154 152 150 147 144 141 137 137 136 136 138 140 142 145 149 152 153 153 155 156 155 154 154 155 159 162
132 134 77 63 75 48 302 275 268 254 188 107 69 75 82 69 57 76 82 124 124 133 142 155 155 153 149 147 144 142 141 140 139 141 144 146 149 153 156 158 158 161 162 163 164 165 164 167 171
149 122 87 73 89 172 250 262 224 314 43 86 85 61 87 74 62 115 144 129 118 124 136 158 155 151 150 150 149 146 146 146 144 146 147 149 151 154 158 162 166 169 171 172 174 177 178 180 185
114 56 59 69 30 234 227 254 172 98 15 44 100 81 63 27 74 128 123 125 119 118 127 154 155 153 153 150 148 150 152 151 150 151 152 153 155 160 163 167 174 177 180 181 184 186 189 192 197
67 76 58 30 285 269 249 255 146 110 0 51 105 106 33 20 73 100 118 125 126 122 127 149 155 156 156 154 155 155 156 156 157 159 161 162 164 167 173 175 181 186 190 194 196 197 200 203 206
60 66 76 317 289 294 283 200 112 99 103 82 101 106 45 64 91 109 119 118 120 125 123 135 157 158 158 158 161 161 159 159 163 167 171 173 175 175 178 183 190 196 198 204 206 208 210 215 219
105 96 136 219 280 300 279 127 130 138 108 281 121 115 131 78 106 111 107 99 97 105 109 119 147 156 159 166 169 169 168 168 169 174 179 184 187 187 189 194 198 205 207 212 214 216 219 220 224
127 102 94 244 238 273 276 99 125 131 170 83 108 135 191 172 116 102 93 83 82 80 90 107 116 142 148 170 179 177 177 182 183 182 184 188 190 196 201 204 209 213 215 217 220 220 223 225 228
97 79 225 224 209 253 240 123 27 75 89 66 78 126 143 127 119 107 94 85 87 87 56 103 122 137 147 172 188 185 189 195 196 191 192 194 193 197 209 215 217 219 225 224 224 225 228 228 232
95 138 228 219 195 214 234 193 167 101 85 70 70 77 112 123 127 124 125 129 136 144 190 188 169 177 166 187 181 176 189 187 193 190 195 189 185 203 211 221 223 228 230 229 223 227 230 230 231
150 195 235 249 211 194 190 173 125 138 156 195 158 136 133 131 133 138 144 145 162 174 172 175 182 168 164 178 156 137 158 178 195 194 187 179 183 205 212 217 229 232 232 230 230 228 221 221 224
175 246 233 263 241 145 172 136 97 127 184 157 142 139 140 141 150 158 154 150 149 125 142 183 177 158 169 150 146 156 153 182 198 209 188 171 186 203 205 212 221 215 211 208 217 212 219 218 228
198 268 291 248 330 118 101 102 115 98 124 110 116 123 137 143 146 125 117 125 99 88 83 0 109 146 155 126 135 130 169 193 197 194 175 172 181 197 196 215 225 225 212 200 214 208 217 229 236
220 268 326 331 58 86 99 73 80 350 111 110 114 123 136 139 135 114 107 116 130 164 235 310 31 68 92 103 121 138 210 252 253 220 200 187 184 187 193 210 229 226 218 205 201 208 212 229 233
66 18 2 4 28 68 90 43 41 52 105 104 113 120 120 120 119 142 163 153 174 202 350 354 341 45 48 46 32 61 276 279 292 272 235 205 187 188 199 204 224 232 224 207 194 203 203 224 229
40 40 1 323 8 25 94 92 357 80 112 107 107 104 104 99 103 116 113 111 96 87 53 354 16 51 34 12 264 156 233 251 270 278 271 243 214 203 207 212 220 223 207 194 190 191 205 237 239
33 22 303 314 355 43 85 130 346 80 114 115 107 98 104 93 72 74 91 120 119 130 129 62 21 55 295 302 295 316 324 278 270 271 263 250 227 211 208 218 221 205 195 194 198 180 190 230 242
239 252 287 294 336 60 77 77 16 48 105 115 108 100 99 110 237 156 104 107 76 27 59 65 13 327 305 323 360 5 341 291 269 256 251 243 234 222 211 221 225 201 192 198 197 188 196 211 233
164 168 257 277 142 86 89 72 18 44 78 83 93 105 103 228 278 49 93 72 41 8 359 217 237 275 291 313 308 295 277 270 268 253 251 244 232 221 211 229 225 203 199 208 199 185 197 216 184
153 142 223 322 76 110 97 60 20 49 84 116 149 158 211 273 330 297 254 260 250 262 274 289 278 274 267 250 249 238 247 263 254 266 271 254 240 221 213 209 217 215 207 209 198 183 187 211 170
210 187 206 193 57 72 93 24 2 1 36 37 19 227 243 218 236 268 278 274 268 271 265 271 265 270 277 276 306 332 345 333 311 293 283 269 254 238 229 218 214 220 206 212 215 197 186 203 199
261 226 186 165 120 254 118 202 286 314 341 336 309 303 299 303 309 284 291 292 281 273 285 296 288 294 296 293 237 246 257 265 260 262 273 286 271 251 240 232 218 211 209 211 219 205 200 184 200
217 128 126 129 124 75 37 124 282 321 304 296 299 301 309 306 298 282 274 270 284 295 302 301 306 308 302 291 247 241 265 263 274 279 282 285 279 266 251 236 226 219 215 220 214 208 202 193 195
133 72 59 54 71 44 267 161 270 249 241 276 283 291 302 309 308 297 293 302 309 316 313 306 307 300 300 299 286 257 257 268 284 291 286 285 280 272 260 241 232 230 223 224 227 216 206 201 202
77 82 35 8 13 259 247 163 249 253 229 235 272 287 296 310 308 298 304 309 310 308 297 298 299 296 297 290 279 269 259 253 252 262 265 274 278 273 267 255 241 235 230 228 224 216 214 204 202
150 131 151 192 222 268 325 232 256 278 12 354 329 314 323 327 306 296 291 290 292 292 287 287 288 288 287 282 277 268 255 248 252 252 258 260 258 261 260 253 243 235 229 229 216 215 215 206 208
126 134 158 133 139 288 278 279 310 13 8 359 355 355 328 309 302 297 299 298 296 296 292 285 287 293 290 285 287 282 272 263 262 261 258 262 258 258 256 249 246 241 229 223 211 216 219 208 208
113 137 94 108 140 263 288 279 269 297 302 318 329 320 310 311 312 307 303 300 297 294 294 295 288 285 290 294 287 286 278 269 263 261 262 265 263 255 257 257 250 247 237 223 213 216 219 208 210
68 77 94 104 140 161 249 270 233 219 249 268 278 286 290 300 301 297 299 299 300 308 307 301 298 295 296 294 292 289 285 275 266 262 264 266 269 265 261 261 259 252 245 226 213 221 215 210 214
110 131 136 137 207 163 176 265 293 191 239 255 286 298 301 303 299 300 303 308 316 314 311 308 303 297 292 292 297 298 299 301 290 277 273 270 276 277 267 265 263 249 243 228 219 227 221 213 217